User: anonymous   Login
Location: Alsip
(41.6689°N, 87.7387°W)
Time: 21:42:07
(UTC+00:00)
Language:

Resurs 1-4 Rocket - Orbit

View from above orbital plane
View from above orbital plane
View from above satellite
View from above satellite

Ground track
Ground track

The orbit data is extracted from the following two-line orbital elements,

1 25400U 98043G   20272.47617521 -.00000008 +00000-0 +15161-4 0  9998
2 25400 098.6117 206.5249 0010673 039.8289 320.3673 14.25461217155692
Epoch (UTC): 28 September 2020 11:25:41
Eccentricity: 0.0010673
inclination: 98.6117°
perigee height: 799 km
apogee height: 814 km
right ascension of ascending node: 206.5249°
argument of perigee: 39.8289°
revolutions per day: 14.25461217
mean anomaly at epoch: 320.3673°
orbit number at epoch: 15569

The dashed part of the orbit path shows where the satellite is in the earth's shadow,  

DLR